GW3968 Weather Reports


time (UTC)temp
F
wind
direction
speed
knots
gust
knots
rain 1hr
in
rain 24hr
in
rain mn
in
humidity
%
barometer
mb
20260505152355 56 151 0.0 0.0 0.00 0.00 0.00 84 1013.9
20260505151855 56 155 0.0 0.0 0.00 0.00 0.00 84 1014.1
20260505151346 56 153 0.0 0.0 0.00 0.00 0.00 84 1013.9
20260505150843 56 156 0.0 0.0 0.00 0.00 0.00 85 1014.0
20260505150340 56 161 0.0 0.0 0.00 0.00 0.00 86 1014.0
20260505140304 50 160 0.0 0.0 0.00 0.00 0.00 94 1013.8
20260505130228 50 159 0.0 0.0 0.00 0.00 0.00 96 1013.3
20260505124718 50 159 0.0 0.0 0.00 0.00 0.00 95 1013.5
20260505124215 50 159 0.0 0.0 0.00 0.00 0.00 95 1013.5
20260505123711 50 159 0.0 0.0 0.00 0.00 0.00 95 1013.4
20260505123208 50 159 0.0 0.0 0.00 0.00 0.00 95 1013.6
20260505122704 50 159 0.0 0.0 0.00 0.00 0.00 95 1013.5
20260505122201 50 160 0.0 0.0 0.00 0.00 0.00 94 1013.5
20260505121658 50 159 0.0 0.0 0.00 0.00 0.00 94 1013.6
20260505121154 50 159 0.0 0.0 0.00 0.00 0.00 94 1013.5
20260505120652 51 160 0.0 0.0 0.00 0.00 0.00 94 1013.6
20260505120148 51 160 0.0 0.0 0.00 0.00 0.00 93 1013.6
20260505115646 51 160 0.0 0.0 0.00 0.00 0.00 94 1013.7
20260505115145 51 160 0.0 0.0 0.00 0.00 0.00 94 1013.7
20260505114642 51 160 0.0 0.0 0.00 0.00 0.00 93 1013.7
20260505114138 51 160 0.0 0.0 0.00 0.00 0.00 93 1013.4
20260505113634 51 159 0.0 0.0 0.00 0.00 0.00 93 1013.6
20260505113131 51 160 0.0 0.0 0.00 0.00 0.00 93 1013.5
20260505112627 51 160 0.0 0.0 0.00 0.00 0.00 93 1013.4
20260505112126 51 160 0.0 0.0 0.00 0.00 0.00 93 1013.4
20260505111625 51 160 0.0 0.0 0.00 0.00 0.00 94 1013.5
20260505111121 51 160 0.0 0.0 0.00 0.00 0.00 94 1013.5
20260505110618 51 161 0.0 0.0 0.00 0.00 0.00 94 1013.5
20260505110115 51 161 0.0 0.0 0.00 0.00 0.00 94 1013.3
20260505102050 51 160 0.0 0.0 0.00 0.00 0.00 93 1013.5
20260505101549 51 160 0.0 0.0 0.00 0.00 0.00 93 1013.5
20260505101045 51 160 0.0 0.0 0.00 0.00 0.00 94 1013.4
20260505100542 51 160 0.0 0.0 0.00 0.00 0.00 94 1013.4
20260505100038 51 161 0.0 0.0 0.00 0.00 0.00 94 1013.4
20260505095535 51 161 0.0 0.0 0.00 0.00 0.00 94 1013.7
20260505095031 51 160 0.0 0.0 0.00 0.00 0.00 94 1013.5
20260505094528 51 164 0.0 0.0 0.00 0.00 0.00 93 1013.5
20260505094024 51 168 0.0 0.0 0.00 0.00 0.00 93 1013.6
20260505093521 52 168 0.0 0.0 0.00 0.00 0.00 93 1013.9
20260505093018 52 169 0.0 0.0 0.00 0.00 0.00 92 1013.8
20260505092515 52 169 0.0 0.0 0.00 0.00 0.00 92 1013.8
20260505092014 52 169 0.0 0.0 0.00 0.00 0.00 92 1013.9
20260505091510 52 169 0.0 0.9 0.00 0.00 0.00 92 1014.0
20260505091008 52 169 0.0 0.9 0.00 0.00 0.00 92 1014.1
20260505090506 52 168 0.9 0.9 0.00 0.00 0.00 92 1014.0
20260505090003 52 166 0.9 0.9 0.00 0.00 0.00 92 1014.2
20260505085501 52 168 0.0 0.0 0.00 0.00 0.00 92 1014.4
20260505084959 52 168 0.9 0.9 0.00 0.00 0.00 92 1014.2
20260505084457 52 173 0.0 0.0 0.00 0.00 0.00 93 1014.3
20260505083955 52 174 0.0 0.0 0.00 0.00 0.00 94 1014.3
20260505083452 51 175 0.0 0.0 0.00 0.00 0.00 94 1014.3
20260505082948 51 175 0.0 0.0 0.00 0.00 0.00 94 1014.3
20260505082444 51 176 0.0 0.0 0.00 0.00 0.00 94 1013.9
20260505081941 51 177 0.0 0.0 0.00 0.00 0.00 94 1014.3
20260505081438 51 177 0.9 0.9 0.00 0.00 0.00 95 1014.2
20260505080934 51 176 0.0 0.0 0.00 0.00 0.00 95 1014.3
20260505080430 51 176 0.0 0.0 0.00 0.00 0.00 95 1014.2
20260505075926 51 176 0.0 0.0 0.00 0.00 0.00 94 1014.3
20260505075423 51 177 0.0 0.0 0.00 0.00 0.00 94 1014.3
20260505074920 51 181 0.0 0.0 0.00 0.00 0.00 94 1014.3
20260505074418 51 181 0.0 0.9 0.00 0.00 0.00 94 1014.4
20260505073914 51 180 0.9 0.9 0.00 0.00 0.00 94 1014.4
20260505073412 51 182 0.0 0.0 0.00 0.00 0.00 95 1014.4
20260505072909 51 185 0.0 0.0 0.00 0.00 0.00 95 1014.3
20260505072405 51 184 0.0 0.0 0.00 0.00 0.00 96 1014.3
20260505071902 50 188 0.0 0.0 0.00 0.00 0.00 96 1014.2
20260505071358 50 188 0.0 0.0 0.00 0.00 0.00 96 1014.4
20260505070856 50 188 0.0 0.0 0.00 0.00 0.00 96 1014.3
20260505070352 50 195 0.0 0.0 0.00 0.00 0.00 96 1014.4
20260505065848 51 199 0.0 0.0 0.00 0.00 0.00 95 1014.4
20260505065345 51 199 0.0 0.0 0.00 0.00 0.00 95 1014.3
20260505064842 50 199 0.0 0.0 0.00 0.00 0.00 95 1014.3
20260505064339 50 199 0.0 0.0 0.00 0.00 0.00 95 1014.3
20260505063837 51 199 0.0 0.0 0.00 0.00 0.00 95 1014.4
20260505063332 51 199 0.0 0.0 0.00 0.00 0.00 95 1014.3
20260505062829 51 200 0.0 0.0 0.00 0.00 0.00 94 1014.1
20260505062327 51 200 0.0 0.0 0.00 0.00 0.00 94 1014.1
20260505061823 51 200 0.0 0.0 0.00 0.00 0.00 94 1014.3
20260505061322 51 200 0.0 0.0 0.00 0.00 0.00 94 1014.4
20260505060819 51 200 0.0 0.0 0.00 0.00 0.00 93 1014.2
20260505060316 52 200 0.0 0.0 0.00 0.00 0.00 93 1014.2
20260505055811 52 200 0.0 0.0 0.00 0.00 0.00 92 1014.3
20260505055307 53 200 0.0 0.0 0.00 0.00 0.00 92 1014.2
20260505054805 53 200 0.0 0.0 0.00 0.00 0.00 91 1014.2
20260505054302 53 201 0.0 0.0 0.00 0.00 0.00 91 1014.2
20260505053801 53 202 0.0 0.0 0.00 0.00 0.00 90 1014.2
20260505053257 53 202 0.0 0.0 0.00 0.00 0.00 90 1014.2
20260505052754 53 202 0.0 0.0 0.00 0.00 0.00 90 1014.3
20260505052251 53 203 0.0 0.0 0.00 0.00 0.00 90 1014.2
20260505051748 53 201 0.0 0.0 0.00 0.00 0.00 90 1014.2
20260505051246 54 201 0.0 0.0 0.00 0.00 0.00 90 1014.2
20260505050743 54 209 0.0 0.9 0.00 0.00 0.00 90 1014.3
20260505050242 54 221 0.9 0.9 0.00 0.00 0.00 90 1014.4
20260505041712 53 201 0.0 0.0 0.00 0.00 0.00 90 1014.5
20260505041209 53 201 0.0 0.0 0.00 0.00 0.00 90 1014.4
20260505040706 54 214 0.0 0.9 0.00 0.00 0.00 90 1014.2
20260505040203 54 211 0.0 0.0 0.00 0.00 0.00 89 1014.1
20260505035700 54 201 0.0 0.0 0.00 0.00 0.00 89 1014.2
20260505035156 54 207 0.0 0.0 0.00 0.00 0.00 89 1014.2
20260505034652 54 204 0.0 0.0 0.00 0.00 0.00 88 1014.0
20260505034150 54 205 0.0 0.0 0.00 0.00 0.00 88 1014.0
20260505033646 54 198 0.0 0.0 0.00 0.00 0.00 87 1014.1
20260505033144 55 201 0.0 0.0 0.00 0.00 0.00 87 1014.0
20260505032642 55 223 0.9 1.7 0.00 0.00 0.00 86 1013.9
20260505032138 55 202 0.9 0.9 0.00 0.00 0.00 86 1014.0
20260505031636 55 237 0.9 0.9 0.00 0.00 0.00 85 1013.9
20260505031131 55 204 0.9 1.7 0.00 0.00 0.00 85 1013.9
20260505030629 55 207 0.0 0.9 0.00 0.00 0.00 85 1013.7
20260505030125 56 234 1.7 2.6 0.00 0.00 0.00 84 1013.8
20260505025620 56 208 0.9 0.9 0.00 0.00 0.00 84 1013.8
20260505025120 56 242 1.7 1.7 0.00 0.00 0.00 84 1013.8
20260505024616 56 302 0.9 1.7 0.00 0.00 0.00 83 1013.9
20260505024114 56 240 0.9 0.9 0.00 0.00 0.00 83 1013.7
20260505023611 56 222 2.6 2.6 0.00 0.00 0.00 83 1013.8
20260505023108 57 346 1.7 4.3 0.00 0.00 0.00 82 1013.7
20260505022606 57 315 4.3 7.0 0.00 0.00 0.00 82 1013.4
20260505022102 57 276 2.6 4.3 0.00 0.00 0.00 82 1013.6
20260505021559 57 301 2.6 4.3 0.00 0.00 0.00 81 1013.7
20260505021056 57 279 3.5 5.2 0.00 0.00 0.00 81 1013.6
20260505020556 57 230 2.6 2.6 0.00 0.00 0.00 79 1013.5
20260505020053 58 233 0.9 0.9 0.00 0.00 0.00 77 1013.7
20260505015550 58 250 3.5 5.2 0.00 0.00 0.00 76 1013.7
20260505015047 58 314 3.5 4.3 0.00 0.00 0.00 75 1013.5
20260505014543 58 294 4.3 7.0 0.00 0.00 0.00 74 1013.5
20260505014041 59 270 2.6 5.2 0.00 0.00 0.00 74 1013.5
20260505013537 59 254 5.2 6.1 0.00 0.00 0.00 73 1013.7
20260505013035 59 228 2.6 2.6 0.00 0.00 0.00 72 1013.6
20260505012533 59 289 4.3 6.1 0.00 0.00 0.00 71 1013.6
20260505012030 60 327 2.6 4.3 0.00 0.00 0.00 71 1013.6
20260505011525 60 321 3.5 6.1 0.00 0.00 0.00 69 1013.6
20260505011023 61 225 2.6 2.6 0.00 0.00 0.00 68 1013.6
20260505010518 61 280 4.3 6.1 0.00 0.00 0.00 67 1013.6
20260505010015 62 306 4.3 6.1 0.00 0.00 0.00 66 1013.5
20260505005511 62 306 3.5 5.2 0.00 0.00 0.00 66 1013.5
20260505005009 62 271 2.6 2.6 0.00 0.00 0.00 66 1013.5
20260505004506 62 17 5.2 7.0 0.00 0.00 0.00 64 1013.6
20260505004003 63 277 1.7 2.6 0.00 0.00 0.00 65 1013.7
20260505003500 62 329 4.3 5.2 0.00 0.00 0.00 64 1013.5
20260505002956 62 297 3.5 5.2 0.00 0.00 0.00 65 1013.6
20260505002452 63 222 2.6 2.6 0.00 0.00 0.00 63 1013.7
20260505001950 63 300 3.5 4.3 0.00 0.00 0.00 63 1013.2
20260505001448 64 302 4.3 5.2 0.00 0.00 0.00 62 1013.6
20260505000944 65 241 1.7 2.6 0.00 0.00 0.00 62 1013.4
20260505000443 64 308 6.1 7.8 0.00 0.00 0.00 63 1013.2
20260504235939 63 255 2.6 4.3 0.00 0.00 0.00 65 1013.4
20260504235436 64 261 0.9 0.9 0.00 0.00 0.00 65 1013.3
20260504234932 64 309 4.3 6.1 0.00 0.00 0.00 66 1013.4
20260504234430 66 208 0.9 0.9 0.00 0.00 0.00 62 1013.4
20260504233926 67 219 0.9 1.7 0.00 0.00 0.00 53 1013.5
20260504233422 68 201 1.7 2.6 0.00 0.00 0.00 55 1013.4
20260504232919 68 238 2.6 4.3 0.00 0.00 0.00 56 1013.4
20260504232417 68 215 1.7 1.7 0.00 0.00 0.00 56 1013.6
20260504231914 70 336 1.7 2.6 0.00 0.00 0.00 52 1013.4
20260504231409 69 205 0.9 2.6 0.00 0.00 0.00 52 1013.7
20260504230906 69 217 0.9 1.7 0.00 0.00 0.00 54 1013.6
20260504230403 70 237 2.6 2.6 0.00 0.00 0.00 52 1013.7
20260504225902 71 236 2.6 4.3 0.00 0.00 0.00 49 1013.4
20260504225358 72 242 1.7 2.6 0.00 0.00 0.00 46 1013.6
20260504224856 70 238 1.7 2.6 0.00 0.00 0.00 49 1013.5
20260504224352 71 293 0.9 1.7 0.00 0.00 0.00 49 1013.7
20260504223849 70 256 0.9 1.7 0.00 0.00 0.00 50 1013.7
20260504223344 69 293 1.7 2.6 0.00 0.00 0.00 50 1013.8
20260504222841 69 247 2.6 2.6 0.00 0.00 0.00 50 1013.8
20260504222338 70 313 1.7 2.6 0.00 0.00 0.00 47 1013.7
20260504221837 72 214 1.7 1.7 0.00 0.00 0.00 47 1013.8
20260504221333 70 220 0.9 0.9 0.00 0.00 0.00 50 1013.7
20260504220830 70 291 2.6 4.3 0.00 0.00 0.00 50 1014.0
20260504220327 70 192 0.9 0.9 0.00 0.00 0.00 48 1014.1
20260504215824 67 218 0.0 0.9 0.00 0.00 0.00 53 1014.1
20260504215320 66 270 2.6 2.6 0.00 0.00 0.00 57 1013.9
20260504214816 65 301 2.6 2.6 0.00 0.00 0.00 58 1014.2
20260504214314 65 293 4.3 6.1 0.00 0.00 0.00 58 1013.9
20260504213810 66 343 4.3 5.2 0.00 0.00 0.00 56 1013.9
20260504213306 67 355 3.5 4.3 0.00 0.00 0.00 55 1014.1
20260504212804 68 20 6.1 9.6 0.00 0.00 0.00 54 1014.1
20260504212300 66 327 4.3 6.1 0.00 0.00 0.00 55 1014.0
20260504211758 67 324 4.3 6.1 0.00 0.00 0.00 56 1014.1
20260504211253 66 210 2.6 2.6 0.00 0.00 0.00 55 1014.0
20260504210751 67 220 2.6 4.3 0.00 0.00 0.00 56 1014.2
20260504210248 69 297 2.6 2.6 0.00 0.00 0.00 52 1014.1
20260504205745 68 317 5.2 6.1 0.00 0.00 0.00 53 1014.3
20260504205243 68 248 1.7 2.6 0.00 0.00 0.00 55 1014.2
20260504204741 68 287 2.6 2.6 0.00 0.00 0.00 53 1014.2
20260504204239 68 198 0.0 0.9 0.00 0.00 0.00 54 1014.0
20260504203738 66 190 0.9 0.9 0.00 0.00 0.00 56 1014.0
20260504203235 66 293 4.3 5.2 0.00 0.00 0.00 57 1014.3
20260504202735 67 316 2.6 2.6 0.00 0.00 0.00 58 1013.8
20260504202232 66 319 4.3 6.1 0.00 0.00 0.00 59 1014.2
20260504201729 65 294 4.3 6.1 0.00 0.00 0.00 60 1014.0
20260504201226 64 302 4.3 6.1 0.00 0.00 0.00 62 1014.2
20260504200724 64 306 2.6 2.6 0.00 0.00 0.00 62 1014.1
20260504200220 65 296 3.5 4.3 0.00 0.00 0.00 62 1014.1
20260504195716 65 297 3.5 5.2 0.00 0.00 0.00 61 1013.9
20260504195212 65 334 3.5 5.2 0.00 0.00 0.00 60 1014.1
20260504194709 65 298 2.6 4.3 0.00 0.00 0.00 60 1014.0
20260504194206 65 329 2.6 2.6 0.00 0.00 0.00 59 1013.8
20260504193702 65 304 2.6 2.6 0.00 0.00 0.00 58 1013.9
20260504193200 66 318 3.5 4.3 0.00 0.00 0.00 57 1014.2
20260504192658 65 321 2.6 2.6 0.00 0.00 0.00 57 1014.1
20260504192155 65 300 1.7 1.7 0.00 0.00 0.00 58 1013.9
20260504191654 65 290 0.9 1.7 0.00 0.00 0.00 59 1014.0
20260504191149 64 290 0.9 0.9 0.00 0.00 0.00 62 1014.2
20260504190646 64 311 2.6 4.3 0.00 0.00 0.00 61 1014.1
20260504190143 64 297 1.7 2.6 0.00 0.00 0.00 62 1014.2
20260504185639 64 293 1.7 2.6 0.00 0.00 0.00 63 1013.9
20260504185136 65 306 4.3 5.2 0.00 0.00 0.00 61 1013.9
20260504184632 66 289 2.6 2.6 0.00 0.00 0.00 57 1014.1
20260504184127 67 259 0.9 0.9 0.00 0.00 0.00 57 1014.1
20260504183624 67 261 0.9 0.9 0.00 0.00 0.00 58 1014.2
20260504183122 67 235 2.6 2.6 0.00 0.00 0.00 55 1014.2
20260504182619 67 247 1.7 4.3 0.00 0.00 0.00 57 1014.2
20260504182117 66 277 0.9 1.7 0.00 0.00 0.00 56 1014.3
20260504181614 65 295 1.7 1.7 0.00 0.00 0.00 59 1014.2
20260504181111 67 282 2.6 2.6 0.00 0.00 0.00 53 1014.4
20260504180610 68 243 0.9 0.9 0.00 0.00 0.00 52 1014.3
20260504180109 69 252 0.9 0.9 0.00 0.00 0.00 50 1014.3
20260504175606 69 257 0.9 1.7 0.00 0.00 0.00 52 1014.3
20260504175102 67 259 0.0 0.9 0.00 0.00 0.00 52 1014.5
20260504174600 66 286 0.9 0.9 0.00 0.00 0.00 57 1014.2
20260504174057 66 200 0.9 0.9 0.00 0.00 0.00 56 1014.4
20260504173553 65 212 2.6 2.6 0.00 0.00 0.00 57 1014.3
20260504173051 66 223 0.0 0.0 0.00 0.00 0.00 56 1014.4
20260504172547 66 258 1.7 1.7 0.00 0.00 0.00 55 1014.2
20260504172044 66 296 0.9 0.9 0.00 0.00 0.00 57 1014.2
20260504171541 64 310 0.9 0.9 0.00 0.00 0.00 60 1014.3
20260504171038 63 3 1.7 2.6 0.00 0.00 0.00 61 1014.1
20260504170533 63 303 0.9 0.9 0.00 0.00 0.00 60 1014.3